Terminal Aerodrome Forecast
Issued by NWS

Home | Current Version | Previous Version | Text Only | Print | Product List | Glossary On
Versions: 1 2 3 4 5 6 7 8 9 10 11 12 13 14 15 16 17 18
482
FTPA31 PHFO 110540
TAFHOG
TAF
PHOG 110540Z 1106/1206 02005KT P6SM VCSH FEW010 BKN060 OVC100
     FM110800 13005KT P6SM VCSH SCT010 BKN060 OVC100
     FM112200 02008KT P6SM VCSH FEW030 BKN060
      AMD LTD TO VIS AND WIND 1109/1116=

USA.gov is the U.S. government's official web portal to all federal, state and local government web resources and services.